Location: Grand Mazuras
(45.9128°N, 1.7636°E)
Time: 10:03:01
(UTC+00:00)

N. Korean satellite - Pass Details

Date: 29 September 2021
Orbit: 450 x 495 km, 97.3° (Epoch: 15 October)

Event Time Altitude Azimuth Distance (km) Brightness Sun altitude
Rises 04:46:09 0° 19° (NNE) 2,540 10.6 -11.7°
Reaches altitude 10° 04:48:18 10° 28° (NNE) 1,664 9.8 -11.3°
Maximum altitude 04:51:40 38° 98° (E) 760 8.2 -10.8°
Drops below altitude 10° 04:55:02 10° 168° (SSE) 1,673 9.4 -10.2°
Sets 04:57:13 0° 176° (S) 2,555 10.2 -9.8°
